Simultaneous Nadir Overpasses (SNOs) Predictions

Prediction of SNOs between METOP-A and NPP Satellite Orbit:

Table of predicted SNOs for the next 14.0 days since TLE Epoch: 8/19/2014
Index Date (METOP-A) Time (METOP-A) Lat,Lon (METOP-A) SZA (METOP-A ) Date (NPP) Time (NPP) Lat,Lon (NPP) SZA (NPP ) Distance(km) Time Diff (sec)
1 08/19/2014 12:42:41 -73.15, 162.11 119.45 08/19/2014 12:42:46 -73.15, 162.06 119.45 1.66 5
2 08/19/2014 13:33:21 73.13, -30.60 60.55 08/19/2014 13:33:32 73.14, -30.60 60.55 0.32 11
3 08/19/2014 14:24:03 -73.14, 136.73 119.44 08/19/2014 14:24:16 -73.15, 136.69 119.43 1.93 13
4 08/19/2014 15:14:43 73.11, -55.98 60.56 08/19/2014 15:15:02 73.13, -55.97 60.57 2.24 19
5 08/19/2014 16:05:25 -73.12, 111.35 119.44 08/19/2014 16:05:45 -73.10, 111.43 119.46 3.44 20
6 08/19/2014 16:56:04 73.15, -81.25 60.61 08/19/2014 16:56:32 73.13, -81.34 60.59 3.16 28
7 08/19/2014 17:46:47 -73.10, 85.97 119.43 08/19/2014 17:47:15 -73.09, 86.06 119.44 2.97 28
8 08/19/2014 18:37:26 73.13,-106.63 60.61 08/19/2014 18:38:02 73.13,-106.71 60.61 2.46 36
9 08/19/2014 19:28:09 -73.08, 60.59 119.42 08/19/2014 19:28:45 -73.09, 60.69 119.42 3.62 36
10 08/19/2014 20:18:48 73.11,-132.02 60.62 08/19/2014 20:19:32 73.13,-132.08 60.63 3.09 44
11 08/19/2014 21:09:30 -73.11, 35.32 119.37 08/19/2014 21:10:15 -73.09, 35.32 119.40 2.18 45
12 08/19/2014 22:00:10 73.09,-157.40 60.62 08/19/2014 22:01:01 73.08,-157.34 60.60 2.30 51
13 08/19/2014 22:50:52 -73.09, 9.94 119.37 08/19/2014 22:51:45 -73.09, 9.95 119.38 0.51 53
14 08/19/2014 23:41:32 73.07, 177.22 60.63 08/19/2014 23:42:31 73.07, 177.29 60.62 2.19 59
15 08/20/2014 00:32:14 -73.07, -15.45 119.36 08/20/2014 00:33:15 -73.09, -15.42 119.36 1.76 61
16 08/20/2014 01:22:53 73.10, 151.95 60.68 08/20/2014 01:24:01 73.07, 151.92 60.64 3.41 68
17 08/20/2014 02:13:35 -73.10, -40.72 119.31 08/20/2014 02:14:45 -73.09, -40.79 119.34 3.23 70
18 08/20/2014 03:04:17 72.98, 126.35 60.60 08/20/2014 03:05:30 73.02, 126.66 60.61 10.79 73
19 08/20/2014 03:55:00 -72.93, -66.42 119.44 08/20/2014 03:56:13 -72.98, -65.95 119.43 16.44 73
20 08/20/2014 04:45:45 72.66, 100.34 60.33 08/20/2014 04:46:54 </
